Location: Unspecified
(51.0950°N, 12.9690°E)
Time: 01:05:39
(UTC+00:00)

BEESAT - Pass Details

Date: 27 April 2024
Orbit: 692 x 701 km, 98.5° (Epoch: 29 May)

Event Time Altitude Azimuth Distance (km) Brightness Sun altitude
Rises 21:50:12 0° 12° (NNE) 3,085 ? -22.6°
Reaches altitude 10° 21:52:29 10° 8° (N) 2,162 ? -22.8°
Maximum altitude 21:57:07 57° 291° (WNW) 815 ? -23.0°
Enters shadow 21:58:42 37° 232° (SW) 1,068 ? -23.1°
